Northeast Philadelphia, PA

3:42 PM EDT on October 18, 2019 (GMT -0400)
Northeast Philadelphia

Weather History for KPNE - August, 2019

Change the Weather History Date:

Tuesday, August 13, 2019

  Actual Average Record
Temperature  
Mean Temperature 78 °F -  
Max Temperature 82 °F 83 °F 99 °F (2002)
Min Temperature 75 °F 66 °F 57 °F (2006)
Cooling Degree Days 13    
Growing Degree Days 28 (Base 50)    
Moisture  
Dew Point 70 °F    
Average Humidity 75    
Maximum Humidity 88    
Minimum Humidity 66    
Precipitation  
Precipitation 0.02 in - - ()
Sea Level Pressure  
Sea Level Pressure 29.82 in    
Wind  
Wind Speed 4 mph (SSW)    
Max Wind Speed 9 mph    
Max Gust Speed -    
Visibility 8 miles    
Events Rain    
Averages and records for this station are not official NWS values.
T = Trace of Precipitation, MM = Missing Value Source: NWS Daily Summary

Daily Weather History Graph

Daily Weather History Graph

Search for Another Location

Airport or City:

Astronomy

Aug. 13, 2019 Rise Set
Actual Time 6:09 AM EDT 7:59 PM EDT
Civil Twilight 5:40 AM EDT 8:28 PM EDT
Nautical Twilight 5:04 AM EDT 9:04 PM EDT
Astronomical Twilight 4:26 AM EDT 9:42 PM EDT
Moon 7:12 PM EDT (8/13) 4:08 AM EDT (8/13)
Length of Visible Light 14h 48m
Length of Day
13h 50m
Waxing Gibbous, 97% of the Moon is Illuminated
Aug 13
Waxing Gibbous
Aug 15
Full
Aug 23
Last Quarter
Aug 30
New
Sep 5
First Quarter

Hourly Weather History & Observations

Time (EDT) Temp. Heat Index Dew Point Humidity Pressure Visibility Wind Dir Wind Speed Gust Speed Precip Events Conditions
12:54 AM 78.1 °F - 66.0 °F 66% 29.89 in 10.0 mi South 4.6 mph - N/A   Clear
1:54 AM 78.1 °F - 66.9 °F 68% 29.88 in 10.0 mi South 5.8 mph - N/A   Overcast
2:54 AM 78.1 °F - 66.9 °F 68% 29.86 in 10.0 mi SSW 8.1 mph - N/A   Mostly Cloudy
3:54 AM 78.1 °F - 66.0 °F 66% 29.85 in 10.0 mi Variable 3.5 mph - N/A   Overcast
4:54 AM 78.1 °F - 66.9 °F 68% 29.84 in 10.0 mi SSW 5.8 mph - N/A   Scattered Clouds
5:54 AM 78.1 °F - 66.9 °F 68% 29.83 in 10.0 mi SSW 8.1 mph - N/A   Clear
6:54 AM 78.1 °F - 66.9 °F 68% 29.84 in 10.0 mi SSW 4.6 mph - N/A   Partly Cloudy
7:54 AM 79.0 °F - 66.9 °F 66% 29.84 in 10.0 mi SW 4.6 mph - N/A   Scattered Clouds
8:54 AM 80.1 °F 82.7 °F 68.0 °F 67% 29.84 in 10.0 mi SW 6.9 mph - N/A   Clear
9:54 AM 81.0 °F 84.1 °F 69.1 °F 67% 29.85 in 10.0 mi WSW 9.2 mph - N/A   Overcast
10:54 AM 80.1 °F 82.7 °F 68.0 °F 67% 29.84 in 10.0 mi NW 8.1 mph - N/A   Overcast
11:54 AM 79.0 °F - 70.0 °F 74% 29.84 in 10.0 mi Calm Calm - 0.00 in   Overcast
12:54 PM 77.0 °F - 70.0 °F 79% 29.83 in 10.0 mi Calm Calm - 0.01 in   Overcast
1:54 PM 78.1 °F - 70.0 °F 76% 29.82 in 10.0 mi SSE 6.9 mph - N/A   Overcast
2:54 PM 80.1 °F 83.2 °F 70.0 °F 71% 29.81 in 10.0 mi SSE 5.8 mph - N/A   Overcast
3:54 PM 80.1 °F 83.2 °F 70.0 °F 71% 29.79 in 10.0 mi Calm Calm - N/A   Mostly Cloudy
4:54 PM 80.1 °F 83.2 °F 70.0 °F 71% 29.78 in 10.0 mi SSE 3.5 mph - N/A   Overcast
5:54 PM 79.0 °F - 71.1 °F 77% 29.78 in 8.0 mi SSE 4.6 mph - 0.00 in Rain Light Rain
6:54 PM 78.1 °F - 72.0 °F 81% 29.79 in 9.0 mi Calm Calm - 0.01 in Rain Light Rain
7:54 PM 77.0 °F - 72.0 °F 84% 29.79 in 8.0 mi Calm Calm - 0.00 in Rain Light Rain
8:54 PM 77.0 °F - 73.0 °F 88% 29.79 in 5.0 mi SSE 3.5 mph - 0.00 in   Mostly Cloudy
9:54 PM 75.9 °F - 72.0 °F 87% 29.80 in 5.0 mi Calm Calm - N/A   Partly Cloudy
10:54 PM 77.0 °F - 73.0 °F 88% 29.81 in 4.0 mi Calm Calm - 0.00 in Rain Light Rain
11:26 PM 75.9 °F - 72.0 °F 87% 29.81 in 2.5 mi Calm Calm - 0.00 in   Partly Cloudy
11:34 PM 75.9 °F - 72.0 °F 87% 29.80 in 3.0 mi Calm Calm - 0.00 in   Scattered Clouds
11:54 PM 75.9 °F - 72.0 °F 87% 29.80 in 3.0 mi Calm Calm - 0.00 in   Scattered Clouds